QTR1315 HEAX-OTHH

Flight info

Callsign QTR1315
Flight time 2h 57m
Altitude 35000
Route NOZ1B NOZ L617 CVO L315 HGD DCT WEJ L604 KFA DCT LADNA DCT HAYYA
Aircraft A320/M-SDE3FGHIRWY/LB1

Departure

Time 2026-05-06 14:09
Airport Alexandria International Airport (HEAX)

Arrival

Time 2026-05-06 17:06
Airport Hamad International Airport (OTHH)
Time Latitude Longitude Altitude Speed Heading
2026-05-06 13:52 30.93153 29.69594 170 ft 0 kts 54°
2026-05-06 13:58 30.93136 29.69567 169 ft 3 kts 54°
2026-05-06 13:59 30.93124 29.69546 169 ft 4 kts 63°
2026-05-06 13:59 30.93117 29.69527 169 ft 4 kts 75°
2026-05-06 13:59 30.93113 29.69497 169 ft 4 kts 97°
2026-05-06 13:59 30.93121 29.69468 169 ft 4 kts 129°
2026-05-06 14:00 30.93140 29.69449 169 ft 4 kts 143°
2026-05-06 14:00 30.93146 29.69443 169 ft 0 kts 143°
2026-05-06 14:01 30.93145 29.69444 169 ft 1 kts 143°
2026-05-06 14:01 30.93134 29.69454 169 ft 4 kts 143°
2026-05-06 14:02 30.93106 29.69478 167 ft 6 kts 144°
2026-05-06 14:02 30.93066 29.69513 169 ft 8 kts 142°
2026-05-06 14:02 30.93015 29.69559 169 ft 10 kts 142°
2026-05-06 14:02 30.92948 29.69615 169 ft 13 kts 150°
2026-05-06 14:03 30.92855 29.69572 168 ft 16 kts 230°
2026-05-06 14:03 30.92766 29.69560 177 ft 11 kts 147°
2026-05-06 14:03 30.92707 29.69613 180 ft 13 kts 142°
2026-05-06 14:03 30.92624 29.69688 182 ft 18 kts 142°
2026-05-06 14:04 30.92510 29.69787 183 ft 23 kts 143°
2026-05-06 14:04 30.92373 29.69913 195 ft 26 kts 144°
2026-05-06 14:04 30.92224 29.70038 190 ft 27 kts 143°
2026-05-06 14:04 30.92073 29.70168 192 ft 28 kts 144°
2026-05-06 14:05 30.91914 29.70308 194 ft 30 kts 142°
2026-05-06 14:05 30.91748 29.70457 184 ft 31 kts 144°
2026-05-06 14:05 30.91569 29.70612 179 ft 34 kts 142°
2026-05-06 14:05 30.91376 29.70784 170 ft 33 kts 143°
2026-05-06 14:06 30.91229 29.70912 165 ft 24 kts 142°
2026-05-06 14:06 30.91093 29.71035 162 ft 26 kts 141°
2026-05-06 14:06 30.90944 29.71158 159 ft 24 kts 163°
2026-05-06 14:06 30.90857 29.71077 168 ft 15 kts 229°
2026-05-06 14:07 30.90785 29.70969 175 ft 19 kts 234°
2026-05-06 14:07 30.90704 29.70838 186 ft 20 kts 242°
2026-05-06 14:07 30.90640 29.70693 183 ft 19 kts 246°
2026-05-06 14:07 30.90655 29.70590 181 ft 16 kts 322°
2026-05-06 14:08 30.90850 29.70419 179 ft 65 kts 323°
2026-05-06 14:08 30.91365 29.69970 194 ft 116 kts 323°
2026-05-06 14:08 30.92128 29.69304 202 ft 156 kts 323°
2026-05-06 14:08 30.93027 29.68528 690 ft 159 kts 325°
2026-05-06 14:09 30.93963 29.67899 1358 ft 156 kts 343°
2026-05-06 14:09 30.95007 29.67661 1942 ft 152 kts 342°
2026-05-06 14:09 30.96053 29.67216 2192 ft 170 kts 338°
2026-05-06 14:09 30.97292 29.67037 2375 ft 196 kts 13°
2026-05-06 14:10 30.98452 29.68049 2651 ft 228 kts 51°
2026-05-06 14:10 30.99267 29.69763 3078 ft 253 kts 63°
2026-05-06 14:10 30.99924 29.71670 3806 ft 259 kts 67°
2026-05-06 14:10 31.00551 29.73657 4606 ft 263 kts 68°
2026-05-06 14:11 31.01196 29.75679 5367 ft 268 kts 68°
2026-05-06 14:11 31.01869 29.77722 5938 ft 273 kts 66°
2026-05-06 14:11 31.02529 29.79809 6218 ft 277 kts 75°
2026-05-06 14:11 31.02834 29.82043 7000 ft 279 kts 79°
2026-05-06 14:12 31.03129 29.84267 7724 ft 283 kts 78°
2026-05-06 14:12 31.03446 29.86555 8407 ft 288 kts 77°
2026-05-06 14:12 31.03769 29.88882 9099 ft 292 kts 78°
2026-05-06 14:12 31.04092 29.91246 9818 ft 296 kts 78°
2026-05-06 14:13 31.04417 29.93645 10338 ft 306 kts 78°
2026-05-06 14:13 31.04760 29.96191 10472 ft 329 kts 78°
2026-05-06 14:13 31.05119 29.98879 10592 ft 350 kts 78°
2026-05-06 14:13 31.05503 30.01778 10716 ft 370 kts 79°
2026-05-06 14:14 31.05899 30.04791 11070 ft 380 kts 79°
2026-05-06 14:14 31.06300 30.07864 11590 ft 385 kts 79°
2026-05-06 14:14 31.06700 30.10937 12104 ft 389 kts 79°
2026-05-06 14:14 31.07113 30.14117 12636 ft 393 kts 80°
2026-05-06 14:15 31.07518 30.17252 13141 ft 398 kts 80°
2026-05-06 14:15 31.07936 30.20465 13636 ft 402 kts 80°
2026-05-06 14:15 31.08283 30.23725 14096 ft 407 kts 86°
2026-05-06 14:15 31.08107 30.27042 14537 ft 412 kts 99°
2026-05-06 14:16 31.07333 30.30235 14984 ft 415 kts 112°
2026-05-06 14:16 31.05974 30.33215 15447 ft 417 kts 126°
2026-05-06 14:16 31.04095 30.35806 15911 ft 418 kts 138°
2026-05-06 14:16 31.01973 30.38143 16379 ft 420 kts 139°
2026-05-06 14:17 30.99835 30.40487 16848 ft 423 kts 139°
2026-05-06 14:17 30.97682 30.42848 17330 ft 426 kts 139°
2026-05-06 14:17 30.95519 30.45222 17798 ft 428 kts 139°
2026-05-06 14:17 30.93374 30.47580 18284 ft 431 kts 139°
2026-05-06 14:18 30.91182 30.49991 18705 ft 434 kts 139°
2026-05-06 14:18 30.88965 30.52421 19122 ft 437 kts 139°
2026-05-06 14:18 30.86739 30.54854 19539 ft 439 kts 139°
2026-05-06 14:18 30.84501 30.57299 19956 ft 442 kts 139°
2026-05-06 14:19 30.82282 30.59731 20346 ft 445 kts 139°
2026-05-06 14:19 30.80018 30.62215 20761 ft 447 kts 139°
2026-05-06 14:19 30.77748 30.64702 21149 ft 449 kts 139°
2026-05-06 14:19 30.75464 30.67201 21520 ft 452 kts 139°
2026-05-06 14:20 30.73192 30.69682 21870 ft 454 kts 139°
2026-05-06 14:20 30.70876 30.72211 22246 ft 457 kts 139°
2026-05-06 14:20 30.68549 30.74748 22591 ft 459 kts 140°
2026-05-06 14:20 30.66210 30.77294 22931 ft 461 kts 140°
2026-05-06 14:21 30.63857 30.79851 23274 ft 464 kts 140°
2026-05-06 14:21 30.61496 30.82416 23605 ft 466 kts 140°
2026-05-06 14:21 30.59146 30.84966 23887 ft 468 kts 140°
2026-05-06 14:21 30.56758 30.87558 24166 ft 470 kts 140°
2026-05-06 14:22 30.54359 30.90161 24446 ft 472 kts 140°
2026-05-06 14:22 30.51948 30.92780 24726 ft 475 kts 140°
2026-05-06 14:22 30.49556 30.95378 24999 ft 477 kts 140°
2026-05-06 14:22 30.47130 30.98010 25340 ft 476 kts 140°
2026-05-06 14:23 30.44714 31.00630 25777 ft 475 kts 140°
2026-05-06 14:23 30.42300 31.03247 26189 ft 474 kts 140°
2026-05-06 14:23 30.39884 31.05860 26595 ft 473 kts 140°
2026-05-06 14:23 30.37476 31.08463 26989 ft 473 kts 140°
2026-05-06 14:24 30.35100 31.11027 27398 ft 472 kts 140°
2026-05-06 14:24 30.32691 31.13626 27808 ft 472 kts 140°
2026-05-06 14:24 30.30286 31.16215 28222 ft 471 kts 140°
2026-05-06 14:24 30.27881 31.18801 28629 ft 471 kts 140°
2026-05-06 14:25 30.25482 31.21382 29047 ft 470 kts 140°
2026-05-06 14:25 30.23091 31.23959 29462 ft 470 kts 140°
2026-05-06 14:25 30.20729 31.26505 29874 ft 469 kts 140°
2026-05-06 14:25 30.18337 31.29079 30269 ft 468 kts 141°
2026-05-06 14:26 30.15944 31.31646 30607 ft 468 kts 141°
2026-05-06 14:26 30.13553 31.34206 30918 ft 469 kts 141°
2026-05-06 14:26 30.11153 31.36774 31239 ft 469 kts 141°
2026-05-06 14:26 30.08711 31.39270 31553 ft 467 kts 147°
2026-05-06 14:27 30.06111 31.41508 31870 ft 466 kts 148°
2026-05-06 14:27 30.03540 31.43705 32198 ft 466 kts 148°
2026-05-06 14:27 30.00932 31.45932 32536 ft 466 kts 148°
2026-05-06 14:27 29.98317 31.48163 32876 ft 466 kts 148°
2026-05-06 14:28 29.95700 31.50397 33220 ft 467 kts 148°
2026-05-06 14:28 29.93084 31.52629 33532 ft 467 kts 148°
2026-05-06 14:28 29.90498 31.54835 33855 ft 467 kts 148°
2026-05-06 14:28 29.87888 31.57061 34155 ft 467 kts 148°
2026-05-06 14:29 29.85277 31.59287 34421 ft 467 kts 149°
2026-05-06 14:29 29.82658 31.61513 34673 ft 467 kts 149°
2026-05-06 14:29 29.80046 31.63731 34945 ft 466 kts 149°
2026-05-06 14:29 29.77428 31.65957 35054 ft 468 kts 149°
2026-05-06 14:30 29.72111 31.70463 35084 ft 480 kts 149°
2026-05-06 14:30 29.66710 31.75038 35087 ft 486 kts 148°
2026-05-06 14:31 29.61248 31.79670 35087 ft 487 kts 148°
2026-05-06 14:31 29.55821 31.84264 35087 ft 487 kts 149°
2026-05-06 14:32 29.50346 31.88888 35066 ft 487 kts 148°
2026-05-06 14:32 29.44911 31.93475 35074 ft 487 kts 149°
2026-05-06 14:33 29.39427 31.98078 35075 ft 487 kts 149°
2026-05-06 14:33 29.33984 32.02649 35081 ft 487 kts 149°
2026-05-06 14:34 29.28519 32.07245 35085 ft 487 kts 149°
2026-05-06 14:34 29.23042 32.11840 35083 ft 487 kts 149°
2026-05-06 14:35 29.17564 32.16420 35080 ft 487 kts 149°
2026-05-06 14:35 29.12123 32.20971 35075 ft 487 kts 149°
2026-05-06 14:36 29.06639 32.25555 35078 ft 487 kts 149°
2026-05-06 14:36 29.01158 32.30114 35071 ft 487 kts 149°
2026-05-06 14:37 28.95710 32.34650 35071 ft 487 kts 149°
2026-05-06 14:37 28.90224 32.39212 35065 ft 487 kts 149°
2026-05-06 14:38 28.84736 32.43765 35042 ft 486 kts 149°
2026-05-06 14:38 28.79290 32.48274 35046 ft 486 kts 149°
2026-05-06 14:39 28.73823 32.52808 35044 ft 486 kts 149°
2026-05-06 14:39 28.68348 32.57350 35049 ft 486 kts 149°
2026-05-06 14:40 28.62897 32.61847 35049 ft 486 kts 149°
2026-05-06 14:40 28.57418 32.66379 35032 ft 486 kts 149°
2026-05-06 14:41 28.51923 32.70901 35019 ft 487 kts 149°
2026-05-06 14:41 28.46427 32.75405 35010 ft 487 kts 149°
2026-05-06 14:42 28.40957 32.79904 35016 ft 487 kts 149°
2026-05-06 14:42 28.35462 32.84432 35016 ft 487 kts 149°
2026-05-06 14:43 28.29960 32.88948 35014 ft 487 kts 149°
2026-05-06 14:43 28.24487 32.93414 35014 ft 487 kts 149°
2026-05-06 14:44 28.18979 32.97908 34998 ft 487 kts 149°
2026-05-06 14:45 28.10759 33.04624 35012 ft 487 kts 149°
2026-05-06 14:45 28.05260 33.09106 35006 ft 487 kts 149°
2026-05-06 14:46 27.99754 33.13590 35007 ft 487 kts 150°
2026-05-06 14:46 27.94279 33.18039 34994 ft 486 kts 149°
2026-05-06 14:47 27.88771 33.22508 34981 ft 486 kts 150°
2026-05-06 14:47 27.83269 33.26968 34988 ft 486 kts 150°
2026-05-06 14:48 27.77802 33.31397 34989 ft 485 kts 150°
2026-05-06 14:48 27.72310 33.35835 34990 ft 485 kts 150°
2026-05-06 14:49 27.66846 33.40250 34992 ft 485 kts 150°
2026-05-06 14:49 27.62273 33.43941 34993 ft 485 kts 150°
2026-05-06 14:50 27.56775 33.48366 34979 ft 485 kts 150°
2026-05-06 14:50 27.51269 33.52804 34988 ft 485 kts 150°
2026-05-06 14:51 27.45794 33.57206 34985 ft 485 kts 150°
2026-05-06 14:51 27.40320 33.61594 34994 ft 485 kts 150°
2026-05-06 14:52 27.34807 33.66006 34994 ft 485 kts 150°
2026-05-06 14:52 27.29330 33.70397 34983 ft 485 kts 150°
2026-05-06 14:53 27.23820 33.74810 34973 ft 485 kts 150°
2026-05-06 14:53 27.18745 33.79902 34982 ft 496 kts 133°
2026-05-06 14:54 27.15281 33.86594 34981 ft 505 kts 114°
2026-05-06 14:54 27.12652 33.93939 34980 ft 506 kts 115°
2026-05-06 14:55 27.10031 34.01224 34968 ft 506 kts 115°
2026-05-06 14:55 27.07381 34.08549 34972 ft 506 kts 115°
2026-05-06 14:56 27.04723 34.15899 34969 ft 506 kts 115°
2026-05-06 14:56 27.02091 34.23178 34979 ft 506 kts 115°
2026-05-06 14:57 26.99433 34.30498 34973 ft 507 kts 115°
2026-05-06 14:57 26.96772 34.37827 34968 ft 507 kts 115°
2026-05-06 14:58 26.94101 34.45156 34963 ft 507 kts 115°
2026-05-06 14:58 26.91445 34.52437 34954 ft 507 kts 116°
2026-05-06 14:59 26.88768 34.59767 34959 ft 507 kts 116°
2026-05-06 14:59 26.86110 34.67042 34959 ft 507 kts 116°
2026-05-06 15:00 26.83425 34.74362 34947 ft 507 kts 116°
2026-05-06 15:00 26.80738 34.81667 34955 ft 507 kts 116°
2026-05-06 15:01 26.78067 34.88914 34957 ft 506 kts 116°
2026-05-06 15:01 26.75372 34.96215 34956 ft 506 kts 116°
2026-05-06 15:02 26.72690 35.03465 34944 ft 506 kts 116°
2026-05-06 15:02 26.69992 35.10763 34945 ft 506 kts 116°
2026-05-06 15:03 26.67289 35.18055 34948 ft 506 kts 116°
2026-05-06 15:03 26.64606 35.25276 34933 ft 506 kts 116°
2026-05-06 15:04 26.61899 35.32552 34940 ft 506 kts 117°
2026-05-06 15:04 26.59191 35.39810 34945 ft 506 kts 117°
2026-05-06 15:05 26.56495 35.47026 34947 ft 506 kts 117°
2026-05-06 15:05 26.53783 35.54291 34939 ft 506 kts 117°
2026-05-06 15:06 26.51066 35.61541 34943 ft 506 kts 117°
2026-05-06 15:06 26.48336 35.68783 34939 ft 506 kts 117°
2026-05-06 15:07 26.45613 35.75991 34904 ft 506 kts 117°
2026-05-06 15:07 26.42880 35.83245 34918 ft 506 kts 118°
2026-05-06 15:08 26.40151 35.90482 34935 ft 506 kts 118°
2026-05-06 15:08 26.37410 35.97725 34938 ft 506 kts 118°
2026-05-06 15:09 26.34680 36.04920 34938 ft 506 kts 118°
2026-05-06 15:09 26.31929 36.12152 34937 ft 506 kts 118°
2026-05-06 15:10 26.29189 36.19339 34928 ft 506 kts 118°
2026-05-06 15:10 26.26433 36.26577 34909 ft 506 kts 118°
2026-05-06 15:11 26.23683 36.33810 34910 ft 506 kts 118°
2026-05-06 15:11 26.20924 36.41025 34908 ft 506 kts 118°
2026-05-06 15:12 26.18783 36.48468 34905 ft 515 kts 102°
2026-05-06 15:12 26.18694 36.56466 34935 ft 521 kts 85°
2026-05-06 15:13 26.19543 36.64508 34936 ft 521 kts 85°
2026-05-06 15:13 26.20341 36.72494 34948 ft 521 kts 85°
2026-05-06 15:14 26.21122 36.80526 34941 ft 521 kts 86°
2026-05-06 15:14 26.21908 36.88566 34943 ft 521 kts 85°
2026-05-06 15:15 26.22696 36.96563 34948 ft 521 kts 85°
2026-05-06 15:15 26.23485 37.04604 34936 ft 521 kts 86°
2026-05-06 15:16 26.24256 37.12585 34941 ft 521 kts 86°
2026-05-06 15:16 26.25032 37.20611 34958 ft 521 kts 86°
2026-05-06 15:17 26.25809 37.28654 34976 ft 521 kts 86°
2026-05-06 15:17 26.26573 37.36649 34973 ft 521 kts 86°
2026-05-06 15:18 26.27333 37.44684 34975 ft 521 kts 86°
2026-05-06 15:18 26.28090 37.52729 34947 ft 521 kts 86°
2026-05-06 15:19 26.28844 37.60778 34954 ft 522 kts 86°
2026-05-06 15:19 26.29593 37.68793 34954 ft 523 kts 86°
2026-05-06 15:20 26.30349 37.76857 34928 ft 523 kts 87°
2026-05-06 15:20 26.31090 37.84937 34924 ft 523 kts 87°
2026-05-06 15:21 26.31818 37.92973 34946 ft 523 kts 87°
2026-05-06 15:21 26.32562 38.01042 34930 ft 522 kts 87°
2026-05-06 15:22 26.33291 38.09060 34933 ft 522 kts 87°
2026-05-06 15:22 26.34015 38.17120 34938 ft 521 kts 87°
2026-05-06 15:23 26.34733 38.25173 34932 ft 521 kts 87°
2026-05-06 15:23 26.35447 38.33186 34939 ft 522 kts 88°
2026-05-06 15:24 26.36157 38.41251 34952 ft 522 kts 88°
2026-05-06 15:24 26.36867 38.49315 35004 ft 522 kts 88°
2026-05-06 15:25 26.37567 38.57384 34987 ft 523 kts 88°
2026-05-06 15:25 26.38267 38.65470 34980 ft 523 kts 88°
2026-05-06 15:26 26.38954 38.73505 34967 ft 523 kts 88°
2026-05-06 15:26 26.39640 38.81567 34965 ft 524 kts 88°
2026-05-06 15:27 26.40332 38.89687 34956 ft 525 kts 88°
2026-05-06 15:27 26.41018 38.97816 34959 ft 526 kts 88°
2026-05-06 15:28 26.41696 39.05961 34964 ft 527 kts 88°
2026-05-06 15:28 26.42360 39.14065 34966 ft 526 kts 88°
2026-05-06 15:29 26.43031 39.22204 34965 ft 526 kts 88°
2026-05-06 15:29 26.43663 39.30353 34968 ft 526 kts 90°
2026-05-06 15:30 26.44090 39.38463 34954 ft 525 kts 91°
2026-05-06 15:30 26.44429 39.46613 34955 ft 525 kts 91°
2026-05-06 15:31 26.44794 39.54708 34960 ft 525 kts 91°
2026-05-06 15:31 26.45209 39.62862 34952 ft 525 kts 91°
2026-05-06 15:32 26.45824 39.75078 34978 ft 525 kts 91°
2026-05-06 15:32 26.46206 39.83177 34958 ft 525 kts 91°
2026-05-06 15:33 26.46577 39.91321 34966 ft 525 kts 91°
2026-05-06 15:33 26.46955 39.99420 34959 ft 525 kts 91°
2026-05-06 15:34 26.47334 40.07569 34955 ft 526 kts 92°
2026-05-06 15:34 26.47701 40.15725 34954 ft 526 kts 92°
2026-05-06 15:35 26.48067 40.23906 34949 ft 527 kts 92°
2026-05-06 15:35 26.48426 40.32030 34958 ft 527 kts 92°
2026-05-06 15:36 26.48782 40.40226 34961 ft 528 kts 92°
2026-05-06 15:36 26.49138 40.48376 34942 ft 528 kts 92°
2026-05-06 15:37 26.49487 40.56588 34942 ft 528 kts 92°
2026-05-06 15:37 26.49831 40.64778 34948 ft 528 kts 92°
2026-05-06 15:38 26.50167 40.72975 34942 ft 528 kts 92°
2026-05-06 15:38 26.50501 40.81158 34956 ft 528 kts 92°
2026-05-06 15:39 26.50828 40.89366 34949 ft 528 kts 92°
2026-05-06 15:39 26.51148 40.97575 34931 ft 529 kts 92°
2026-05-06 15:40 26.51330 41.05729 34934 ft 524 kts 100°
2026-05-06 15:40 26.50767 41.13792 34923 ft 522 kts 101°
2026-05-06 15:41 26.50180 41.21908 34919 ft 523 kts 101°
2026-05-06 15:41 26.49610 41.29967 34924 ft 523 kts 101°
2026-05-06 15:42 26.49044 41.38087 34900 ft 524 kts 101°
2026-05-06 15:42 26.48566 41.44831 34903 ft 524 kts 101°
2026-05-06 15:43 26.47885 41.54267 34912 ft 524 kts 101°
2026-05-06 15:43 26.47394 41.61029 34884 ft 524 kts 101°
2026-05-06 15:44 26.46790 41.69164 34924 ft 524 kts 101°
2026-05-06 15:44 26.46180 41.77282 34934 ft 524 kts 101°
2026-05-06 15:45 26.45585 41.85345 34914 ft 523 kts 101°
2026-05-06 15:45 26.44978 41.93451 34917 ft 523 kts 101°
2026-05-06 15:46 26.44362 42.01522 34905 ft 523 kts 102°
2026-05-06 15:46 26.43744 42.09631 34907 ft 524 kts 102°
2026-05-06 15:47 26.43116 42.17751 34911 ft 524 kts 102°
2026-05-06 15:47 26.42479 42.25858 34903 ft 524 kts 102°
2026-05-06 15:48 26.41851 42.33911 34929 ft 524 kts 102°
2026-05-06 15:48 26.41214 42.42021 34914 ft 523 kts 102°
2026-05-06 15:49 26.40579 42.50117 34955 ft 522 kts 102°
2026-05-06 15:49 26.39938 42.58157 34951 ft 522 kts 102°
2026-05-06 15:50 26.39285 42.66224 34942 ft 522 kts 102°
2026-05-06 15:50 26.38632 42.74240 34932 ft 522 kts 102°
2026-05-06 15:51 26.37968 42.82322 34931 ft 522 kts 102°
2026-05-06 15:51 26.37309 42.90390 34928 ft 522 kts 102°
2026-05-06 15:52 26.36641 42.98473 34935 ft 522 kts 102°
2026-05-06 15:52 26.35972 43.06493 34915 ft 523 kts 102°
2026-05-06 15:53 26.35295 43.14581 34914 ft 523 kts 102°
2026-05-06 15:53 26.34607 43.22617 34917 ft 524 kts 102°
2026-05-06 15:54 26.33921 43.30715 34929 ft 524 kts 102°
2026-05-06 15:54 26.33238 43.38798 34929 ft 524 kts 102°
2026-05-06 15:55 26.32547 43.46846 34919 ft 523 kts 102°
2026-05-06 15:55 26.31838 43.54938 34939 ft 523 kts 102°
2026-05-06 15:56 26.31131 43.63025 34951 ft 524 kts 102°
2026-05-06 15:56 26.30422 43.71062 34939 ft 524 kts 102°
2026-05-06 15:57 26.29814 43.79174 34938 ft 529 kts 96°
2026-05-06 15:57 26.29883 43.87406 34926 ft 531 kts 95°
2026-05-06 15:58 26.29966 43.95654 34929 ft 532 kts 95°
2026-05-06 15:58 26.30038 44.03865 34935 ft 532 kts 95°
2026-05-06 15:59 26.30094 44.12079 34924 ft 532 kts 96°
2026-05-06 15:59 26.30145 44.20341 34928 ft 532 kts 96°
2026-05-06 16:00 26.30193 44.28605 34927 ft 532 kts 96°
2026-05-06 16:00 26.30239 44.36847 34950 ft 531 kts 96°
2026-05-06 16:01 26.30281 44.45085 34944 ft 530 kts 95°
2026-05-06 16:01 26.30315 44.53260 34986 ft 530 kts 96°
2026-05-06 16:02 26.30344 44.61479 34978 ft 530 kts 96°
2026-05-06 16:02 26.30366 44.69695 34968 ft 529 kts 96°
2026-05-06 16:03 26.30378 44.77860 34972 ft 529 kts 96°
2026-05-06 16:03 26.30397 44.86071 34971 ft 530 kts 95°
2026-05-06 16:04 26.30435 44.94287 34969 ft 530 kts 95°
2026-05-06 16:04 26.30451 45.02505 34963 ft 529 kts 96°
2026-05-06 16:05 26.30439 45.10665 34968 ft 529 kts 96°
2026-05-06 16:05 26.30429 45.18882 34972 ft 529 kts 96°
2026-05-06 16:06 26.30427 45.27104 34977 ft 529 kts 96°
2026-05-06 16:06 26.30426 45.35307 34986 ft 529 kts 96°
2026-05-06 16:07 26.30402 45.43462 34981 ft 528 kts 96°
2026-05-06 16:07 26.30374 45.51652 34975 ft 527 kts 96°
2026-05-06 16:08 26.30347 45.59838 34991 ft 527 kts 96°
2026-05-06 16:08 26.30318 45.67948 34984 ft 526 kts 96°
2026-05-06 16:09 26.30288 45.76115 34986 ft 526 kts 96°
2026-05-06 16:09 26.30245 45.84269 34978 ft 525 kts 96°
2026-05-06 16:10 26.30200 45.92366 34979 ft 525 kts 96°
2026-05-06 16:10 26.30157 46.00512 34977 ft 525 kts 96°
2026-05-06 16:11 26.30102 46.08672 34965 ft 525 kts 96°
2026-05-06 16:11 26.30047 46.16772 34972 ft 525 kts 96°
2026-05-06 16:12 26.29977 46.24908 34978 ft 524 kts 96°
2026-05-06 16:12 26.29900 46.33020 34976 ft 524 kts 96°
2026-05-06 16:13 26.29836 46.41146 34974 ft 524 kts 96°
2026-05-06 16:13 26.29767 46.49275 34974 ft 524 kts 96°
2026-05-06 16:14 26.29694 46.57367 34976 ft 524 kts 96°
2026-05-06 16:14 26.29608 46.65496 34954 ft 524 kts 96°
2026-05-06 16:15 26.29505 46.73633 34958 ft 524 kts 96°
2026-05-06 16:15 26.29410 46.81759 34965 ft 524 kts 96°
2026-05-06 16:16 26.29317 46.89849 34962 ft 524 kts 96°
2026-05-06 16:16 26.29220 46.97972 34964 ft 524 kts 96°
2026-05-06 16:17 26.29107 47.06122 34951 ft 525 kts 96°
2026-05-06 16:17 26.28977 47.14224 34944 ft 526 kts 96°
2026-05-06 16:18 26.28851 47.22396 34950 ft 527 kts 96°
2026-05-06 16:18 26.28718 47.30520 34945 ft 527 kts 96°
2026-05-06 16:19 26.28576 47.38693 34940 ft 527 kts 96°
2026-05-06 16:19 26.28423 47.46870 34945 ft 527 kts 96°
2026-05-06 16:20 26.28269 47.55059 34943 ft 527 kts 96°
2026-05-06 16:20 26.28106 47.63238 34948 ft 528 kts 96°
2026-05-06 16:21 26.28425 47.71386 34943 ft 535 kts 83°
2026-05-06 16:21 26.30065 47.79514 34940 ft 537 kts 80°
2026-05-06 16:22 26.31728 47.87626 34930 ft 537 kts 80°
2026-05-06 16:22 26.33370 47.95718 34925 ft 536 kts 80°
2026-05-06 16:23 26.35008 48.03836 34937 ft 536 kts 80°
2026-05-06 16:23 26.36650 48.11957 34938 ft 536 kts 80°
2026-05-06 16:24 26.38279 48.20018 34941 ft 536 kts 80°
2026-05-06 16:24 26.39917 48.28135 34933 ft 535 kts 80°
2026-05-06 16:25 26.41545 48.36248 34930 ft 535 kts 80°
2026-05-06 16:25 26.43171 48.44362 34936 ft 535 kts 80°
2026-05-06 16:26 26.44781 48.52426 34924 ft 535 kts 80°
2026-05-06 16:26 26.46394 48.60538 34917 ft 535 kts 80°
2026-05-06 16:27 26.47608 48.68711 34905 ft 529 kts 92°
2026-05-06 16:27 26.47787 48.76852 34905 ft 528 kts 92°
2026-05-06 16:28 26.47389 48.84979 34898 ft 520 kts 104°
2026-05-06 16:28 26.46230 48.92904 34893 ft 520 kts 105°
2026-05-06 16:29 26.45031 49.00870 34892 ft 519 kts 105°
2026-05-06 16:29 26.43831 49.08842 34877 ft 519 kts 104°
2026-05-06 16:30 26.43048 49.14101 34886 ft 519 kts 104°
2026-05-06 16:30 26.41468 49.24683 34890 ft 518 kts 104°
2026-05-06 16:31 26.40274 49.32637 34886 ft 518 kts 104°
2026-05-06 16:31 26.39080 49.40518 34882 ft 518 kts 104°
2026-05-06 16:32 26.37752 49.48402 34868 ft 516 kts 107°
2026-05-06 16:32 26.36138 49.56190 34865 ft 514 kts 109°
2026-05-06 16:33 26.34480 49.63911 34859 ft 514 kts 108°
2026-05-06 16:34 26.32366 49.74294 34846 ft 515 kts 107°
2026-05-06 16:34 26.30563 49.83371 34847 ft 515 kts 108°
2026-05-06 16:35 26.29258 49.89852 34833 ft 514 kts 108°
2026-05-06 16:35 26.27400 49.98942 34841 ft 514 kts 108°
2026-05-06 16:36 26.26078 50.05391 34841 ft 514 kts 108°
2026-05-06 16:36 26.24490 50.13120 34842 ft 514 kts 108°
2026-05-06 16:37 26.22894 50.20903 34842 ft 514 kts 107°
2026-05-06 16:37 26.21299 50.28664 34843 ft 514 kts 108°
2026-05-06 16:38 26.19703 50.36378 34843 ft 513 kts 107°
2026-05-06 16:38 26.18097 50.44130 34847 ft 513 kts 107°
2026-05-06 16:39 26.16483 50.51878 34846 ft 513 kts 107°
2026-05-06 16:39 26.14882 50.59562 34845 ft 513 kts 107°
2026-05-06 16:40 26.13258 50.67323 34859 ft 513 kts 107°
2026-05-06 16:40 26.11648 50.75022 34844 ft 513 kts 107°
2026-05-06 16:41 26.10021 50.82773 34855 ft 513 kts 107°
2026-05-06 16:41 26.08403 50.90469 34849 ft 513 kts 107°
2026-05-06 16:42 26.06770 50.98190 34848 ft 512 kts 107°
2026-05-06 16:42 26.05126 51.05915 34839 ft 512 kts 107°
2026-05-06 16:43 26.03495 51.13595 34840 ft 512 kts 107°
2026-05-06 16:43 26.01853 51.21313 34825 ft 512 kts 107°
2026-05-06 16:44 26.00201 51.29017 34839 ft 511 kts 107°
2026-05-06 16:44 25.98568 51.36669 34830 ft 511 kts 107°
2026-05-06 16:45 25.96921 51.44363 34837 ft 511 kts 107°
2026-05-06 16:45 25.95259 51.52057 34837 ft 511 kts 107°
2026-05-06 16:46 25.93604 51.59683 34834 ft 510 kts 108°
2026-05-06 16:46 25.92478 51.63348 34748 ft 491 kts 121°
2026-05-06 16:46 25.90726 51.66517 34486 ft 473 kts 135°
2026-05-06 16:46 25.88462 51.69075 34127 ft 458 kts 146°
2026-05-06 16:47 25.86012 51.71329 33690 ft 455 kts 147°
2026-05-06 16:47 25.83573 51.73564 33197 ft 450 kts 146°
2026-05-06 16:47 25.81207 51.75733 32447 ft 444 kts 146°
2026-05-06 16:47 25.78841 51.77908 31732 ft 438 kts 146°
2026-05-06 16:48 25.76508 51.80056 31063 ft 434 kts 146°
2026-05-06 16:48 25.74190 51.82188 30536 ft 433 kts 146°
2026-05-06 16:48 25.71835 51.84352 29447 ft 446 kts 145°
2026-05-06 16:48 25.69403 51.86576 28224 ft 457 kts 144°
2026-05-06 16:49 25.66916 51.88830 27089 ft 464 kts 146°
2026-05-06 16:49 25.64130 51.90515 25997 ft 462 kts 166°
2026-05-06 16:49 25.60990 51.90987 25137 ft 454 kts 186°
2026-05-06 16:49 25.57955 51.90188 24378 ft 445 kts 207°
2026-05-06 16:50 25.55396 51.88441 23661 ft 442 kts 218°
2026-05-06 16:50 25.53106 51.86287 22834 ft 440 kts 224°
2026-05-06 16:50 25.50939 51.83906 22053 ft 437 kts 227°
2026-05-06 16:50 25.48786 51.81550 21314 ft 434 kts 220°
2026-05-06 16:51 25.46312 51.79631 20607 ft 431 kts 212°
2026-05-06 16:51 25.43778 51.77967 19860 ft 423 kts 211°
2026-05-06 16:51 25.41239 51.76350 18807 ft 416 kts 211°
2026-05-06 16:51 25.38785 51.74823 18555 ft 390 kts 210°
2026-05-06 16:52 25.36496 51.73412 18418 ft 363 kts 210°
2026-05-06 16:52 25.34359 51.72092 18174 ft 344 kts 210°
2026-05-06 16:52 25.32165 51.71124 17592 ft 339 kts 193°
2026-05-06 16:52 25.29816 51.70993 17223 ft 339 kts 173°
2026-05-06 16:53 25.27556 51.71679 16820 ft 336 kts 159°
2026-05-06 16:53 25.25401 51.72616 16342 ft 337 kts 159°
2026-05-06 16:53 25.23213 51.73580 15971 ft 336 kts 158°
2026-05-06 16:53 25.21035 51.74545 15555 ft 337 kts 158°
2026-05-06 16:54 25.18889 51.75495 15183 ft 336 kts 157°
2026-05-06 16:54 25.16720 51.76453 14849 ft 334 kts 158°
2026-05-06 16:54 25.14572 51.77397 14403 ft 328 kts 158°
2026-05-06 16:54 25.12469 51.78321 14034 ft 318 kts 157°
2026-05-06 16:55 25.10475 51.79195 13904 ft 300 kts 157°
2026-05-06 16:55 25.08514 51.80043 13040 ft 309 kts 158°
2026-05-06 16:55 25.06460 51.80924 11953 ft 324 kts 158°
2026-05-06 16:55 25.04341 51.81838 10834 ft 338 kts 158°
2026-05-06 16:56 25.02115 51.82803 9833 ft 346 kts 158°
2026-05-06 16:56 24.99946 51.83739 9701 ft 327 kts 158°
2026-05-06 16:56 24.97857 51.84625 9573 ft 316 kts 158°
2026-05-06 16:56 24.95847 51.85471 9176 ft 305 kts 158°
2026-05-06 16:57 24.93796 51.85994 8653 ft 303 kts 180°
2026-05-06 16:57 24.91750 51.85517 8334 ft 302 kts 206°
2026-05-06 16:57 24.90090 51.84130 8017 ft 300 kts 232°
2026-05-06 16:57 24.89101 51.82142 7568 ft 295 kts 254°
2026-05-06 16:58 24.88915 51.79948 7043 ft 292 kts 282°
2026-05-06 16:58 24.89649 51.77914 6722 ft 285 kts 308°
2026-05-06 16:58 24.91110 51.76492 6444 ft 278 kts 336°
2026-05-06 16:58 24.92928 51.76070 6326 ft 262 kts
2026-05-06 16:59 24.94717 51.76254 6206 ft 255 kts 359°
2026-05-06 16:59 24.96380 51.75697 5758 ft 256 kts 333°
2026-05-06 16:59 24.97939 51.74813 5413 ft 248 kts 339°
2026-05-06 16:59 24.99529 51.74091 5103 ft 246 kts 341°
2026-05-06 17:00 25.01103 51.73411 4802 ft 239 kts 341°
2026-05-06 17:00 25.02619 51.72749 4499 ft 228 kts 341°
2026-05-06 17:00 25.04049 51.72122 4235 ft 214 kts 341°
2026-05-06 17:00 25.05405 51.71527 3968 ft 202 kts 341°
2026-05-06 17:01 25.06669 51.70972 3715 ft 188 kts 341°
2026-05-06 17:01 25.07817 51.70467 3507 ft 170 kts 342°
2026-05-06 17:01 25.08858 51.70010 3296 ft 155 kts 342°
2026-05-06 17:01 25.09855 51.69574 3108 ft 153 kts 342°
2026-05-06 17:02 25.10841 51.69142 2923 ft 152 kts 342°
2026-05-06 17:02 25.11821 51.68712 2727 ft 151 kts 342°
2026-05-06 17:02 25.12801 51.68282 2538 ft 152 kts 342°
2026-05-06 17:02 25.13774 51.67855 2353 ft 152 kts 341°
2026-05-06 17:03 25.14753 51.67425 2163 ft 150 kts 342°
2026-05-06 17:03 25.15723 51.66999 1973 ft 149 kts 341°
2026-05-06 17:03 25.16676 51.66579 1783 ft 146 kts 340°
2026-05-06 17:03 25.17619 51.66165 1613 ft 145 kts 340°
2026-05-06 17:04 25.18544 51.65759 1427 ft 143 kts 340°
2026-05-06 17:04 25.19464 51.65354 1244 ft 141 kts 339°
2026-05-06 17:04 25.20372 51.64955 1066 ft 139 kts 339°
2026-05-06 17:04 25.21268 51.64561 892 ft 138 kts 337°
2026-05-06 17:05 25.22150 51.64175 743 ft 137 kts 338°
2026-05-06 17:05 25.23036 51.63786 568 ft 136 kts 339°
2026-05-06 17:05 25.23914 51.63374 374 ft 137 kts 341°
2026-05-06 17:05 25.24795 51.63008 209 ft 136 kts 341°
2026-05-06 17:06 25.25671 51.62623 45 ft 132 kts 342°
2026-05-06 17:06 25.26413 51.62300 27 ft 94 kts 339°
2026-05-06 17:06 25.26908 51.62078 24 ft 68 kts 340°
2026-05-06 17:06 25.27267 51.61917 26 ft 33 kts 332°
2026-05-06 17:07 25.27440 51.61755 28 ft 28 kts 309°
2026-05-06 17:07 25.27465 51.61720 28 ft 1 kts 306°
2026-05-06 17:07 25.27472 51.61708 28 ft 3 kts 308°
2026-05-06 17:07 25.27501 51.61668 28 ft 11 kts 309°
2026-05-06 17:08 25.27554 51.61600 28 ft 14 kts 315°
2026-05-06 17:08 25.27573 51.61584 28 ft 2 kts 321°
2026-05-06 17:08 25.27567 51.61576 29 ft 2 kts 220°
2026-05-06 17:08 25.27540 51.61540 29 ft 10 kts 230°
2026-05-06 17:09 25.27450 51.61530 29 ft 18 kts 162°